Wind_Speed
6 6 6 6 7 7 8 8 8 9 9 9 8 7 7 6 5 4 3 2 2 2 2 2 2 2 3 3 4 4 5 5 6 6 6 7 7 8 9 9 9 9 10
6 6 6 7 7 8 9 9 9 10 10 9 9 8 7 6 5 4 4 3 3 3 3 3 2 3 4 4 5 5 5 5 6 6 7 7 8 9 9 10 10 10 10
7 7 7 7 8 9 9 10 10 10 10 9 9 8 8 7 6 5 5 4 4 3 3 3 3 4 4 5 5 5 5 6 6 7 7 7 8 9 9 10 10 10 10
7 7 7 8 8 9 10 10 10 11 10 10 9 8 8 7 6 6 6 5 4 4 3 3 4 4 4 5 5 5 6 6 7 7 7 7 8 9 9 9 10 10 11
6 6 6 7 8 8 9 10 11 11 10 10 9 8 7 7 7 6 6 5 4 4 4 4 4 5 5 6 6 6 7 7 7 7 8 8 9 9 10 10 10 11 11
5 5 5 7 8 9 10 10 11 11 10 10 9 8 8 7 7 6 6 5 5 5 4 4 5 5 6 6 7 7 7 8 8 9 9 9 10 10 11 11 11 11 11
4 4 5 6 8 9 10 10 11 11 10 10 9 9 8 8 7 7 6 6 5 5 5 5 5 6 7 7 7 8 8 9 9 10 10 11 11 11 11 11 11 11 11
4 4 5 6 8 9 10 10 10 11 10 10 9 9 8 8 7 7 7 6 5 5 5 5 6 7 7 8 8 9 9 10 11 11 11 12 12 11 12 12 12 12 12
4 4 5 7 8 9 10 10 10 10 10 10 9 9 8 8 8 7 7 6 5 5 5 6 7 8 8 9 9 10 10 11 11 12 12 12 13 13 13 13 13 13 13
4 5 6 8 9 10 10 10 10 10 10 9 9 9 9 8 8 7 7 6 6 5 6 6 7 8 9 10 10 11 12 12 13 13 13 13 14 14 14 14 14 14 14
5 6 7 8 9 10 10 10 10 10 10 9 9 9 8 8 8 8 7 7 6 6 7 7 8 9 10 11 12 13 13 14 14 15 15 15 15 15 15 15 15 15 15
7 7 8 9 10 10 10 11 11 10 10 10 9 9 9 9 9 9 8 8 8 8 8 8 9 10 11 12 13 14 14 14 15 16 16 16 16 16 16 16 17 17 17
9 8 9 9 10 10 10 10 11 10 10 10 10 10 10 10 10 10 10 10 10 10 10 11 11 12 13 13 14 15 15 15 16 16 17 17 17 17 17 18 18 18 19
10 10 10 10 11 11 11 11 11 11 11 11 11 11 11 12 12 12 13 13 13 13 13 13 13 14 14 15 15 16 16 17 17 17 17 17 18 18 19 19 20 20 21
12 12 11 12 12 12 13 12 12 11 11 12 12 12 13 14 14 14 15 15 15 16 16 16 17 17 17 17 17 18 18 18 18 19 19 19 19 19 20 20 21 21 21
15 14 14 14 14 14 14 14 13 13 13 14 14 14 15 16 16 17 17 18 18 18 19 19 20 20 19 20 20 20 20 20 20 21 21 21 21 21 21 22 22 23 23
17 17 16 16 16 16 16 15 15 15 15 16 17 17 18 19 19 20 20 21 21 22 22 23 23 22 22 22 22 22 22 23 23 23 23 22 23 23 24 23 23 24 25
19 19 18 18 18 17 18 18 18 18 18 19 20 20 21 22 23 24 24 25 25 25 25 26 26 25 25 26 25 25 25 25 25 25 25 25 25 26 26 26 26 27 28
21 20 20 20 20 19 20 20 20 21 21 21 22 22 24 25 26 27 28 28 28 29 28 28 29 29 29 29 29 28 27 27 27 27 27 28 28 28 29 30 30 30 31
23 22 22 22 22 21 20 22 23 23 24 25 25 27 28 29 28 29 30 30 31 31 31 32 33 33 32 33 33 31 31 30 30 29 29 30 30 31 32 32 33 33 34
25 24 24 24 24 24 24 25 25 25 27 28 29 30 31 32 32 33 33 33 33 33 33 34 35 33 34 35 35 34 34 33 31 30 31 31 32 33 34 35 36 37 39
27 27 27 28 29 28 28 28 29 29 29 29 31 33 34 34 35 35 35 35 35 35 35 35 35 35 34 35 37 37 36 35 33 33 34 34 34 35 36 38 40 41 43
29 29 30 30 30 31 31 31 32 32 32 32 32 33 34 34 35 34 31 32 34 34 34 35 34 35 35 35 36 37 38 37 36 36 37 37 37 39 40 42 44 45 46
31 31 31 31 31 32 32 33 34 35 35 35 35 36 36 36 35 35 33 32 32 32 32 33 34 34 35 35 36 37 38 38 39 38 38 40 41 42 44 45 47 49 50
32 32 32 31 32 33 33 35 36 36 36 36 37 38 38 36 34 33 34 34 33 33 33 34 34 34 35 36 37 38 38 39 40 41 43 43 44 46 47 48 50 52 54
33 33 33 33 34 35 36 36 37 38 38 39 40 39 36 34 34 34 33 33 33 33 34 34 35 35 36 36 37 38 39 41 43 44 46 48 48 49 50 52 54 55 57
Wind_Direction
222 216 212 212 212 213 216 216 218 215 210 206 203 203 203 200 196 193 193 196 201 199 202 214 228 243 252 256 258 260 260 261 265 267 270 271 273 274 274 275 274 274 274
232 224 217 214 211 211 215 219 222 219 215 210 207 205 205 205 203 202 202 205 208 208 206 211 227 243 250 254 257 259 259 259 261 264 267 269 270 272 274 274 275 274 275
240 231 223 217 212 210 213 217 222 221 218 215 210 207 207 207 206 207 206 207 210 214 218 223 236 246 251 256 260 261 261 261 262 263 265 266 269 271 274 276 276 276 276
243 236 227 218 213 208 211 215 218 220 220 216 212 210 209 207 207 209 210 210 214 220 227 234 244 250 255 260 263 265 266 267 267 266 266 268 270 272 275 277 278 278 279
246 236 225 216 211 207 209 212 214 215 214 213 211 209 207 205 205 209 212 213 217 224 231 240 251 257 262 266 269 270 270 270 268 267 268 270 272 273 276 278 279 278 279
247 235 223 212 205 203 205 207 207 207 206 205 204 203 201 201 206 210 213 216 221 230 237 247 258 265 267 270 272 274 274 273 271 268 269 271 273 274 275 278 275 275 275
245 234 220 210 204 201 199 199 200 200 200 199 200 201 202 204 210 214 218 221 226 235 244 253 264 271 274 275 277 278 279 278 275 274 273 273 273 273 275 277 276 276 274
243 231 214 206 202 199 196 196 197 197 197 197 200 203 205 209 213 219 223 224 230 240 248 256 267 275 282 283 282 283 282 283 282 280 277 276 274 273 273 275 278 277 277
239 231 218 209 204 201 200 198 197 198 198 198 201 205 211 216 221 225 228 228 234 243 255 266 275 283 288 289 287 286 284 284 284 282 280 278 276 275 276 276 278 278 278
239 228 219 212 208 205 204 202 198 198 199 202 205 211 217 222 225 228 232 235 241 250 262 271 279 286 289 292 292 290 288 286 286 284 282 280 278 277 277 278 279 280 279
244 230 220 214 209 207 205 202 201 203 205 209 213 216 221 227 231 235 240 244 250 258 265 272 276 283 289 294 296 295 293 291 289 287 284 281 279 278 278 279 280 281 280
249 235 219 212 208 206 204 204 206 209 211 216 220 224 229 234 238 242 248 252 256 263 269 272 275 281 287 292 295 295 295 293 290 288 286 283 281 280 280 280 281 282 281
247 233 220 210 208 207 207 208 211 215 218 223 228 233 239 244 246 249 253 258 262 268 271 272 276 280 285 290 294 295 294 294 291 289 288 286 283 282 281 282 282 283 283
242 232 223 216 214 214 214 216 220 223 227 232 237 242 246 249 251 254 256 261 265 269 271 272 275 279 284 287 290 292 292 293 292 290 289 287 284 283 283 282 282 283 283
241 234 229 224 223 222 220 223 226 230 235 239 245 249 250 252 255 258 261 263 265 269 271 272 274 276 281 284 286 287 288 289 289 287 286 285 284 284 284 283 281 281 282
241 237 234 231 229 227 227 229 231 234 238 242 248 253 255 257 261 263 264 265 266 268 271 272 274 275 278 280 283 284 284 285 284 284 283 282 282 283 283 282 281 280 280
241 239 237 234 232 230 231 233 236 239 244 249 253 256 258 260 261 263 265 264 265 267 269 272 273 274 277 278 280 283 283 281 281 281 280 280 280 281 281 280 279 279 279
241 241 239 236 231 231 232 234 238 242 248 253 257 259 260 262 263 263 264 264 265 267 269 270 271 274 276 277 277 278 281 282 279 278 278 278 279 280 280 279 278 278 278
241 242 242 239 234 235 236 239 244 247 250 254 258 261 262 264 265 264 263 265 266 268 269 270 271 272 274 276 276 278 280 280 280 279 279 278 278 278 278 277 277 278 278
239 241 242 243 242 242 243 246 248 250 252 256 259 262 265 264 266 267 266 266 268 269 270 270 269 270 273 275 275 277 277 277 277 279 278 277 276 276 277 277 276 276 277
241 243 244 246 248 249 248 248 250 251 254 258 261 264 265 266 266 267 268 269 271 271 271 271 271 271 274 274 276 277 277 276 276 278 278 278 276 275 276 276 276 276 277
243 244 244 247 249 249 251 251 253 255 257 263 268 267 267 268 269 269 272 272 275 274 272 276 276 276 278 279 278 278 277 275 274 275 277 277 276 277 277 276 276 277 277
244 245 246 248 251 253 255 259 262 265 265 267 271 272 273 274 275 274 277 278 278 278 277 278 281 279 278 282 280 279 278 277 275 276 276 276 275 276 276 276 276 276 276
244 244 246 250 255 260 262 264 267 270 272 272 274 274 273 273 277 277 278 280 281 282 283 283 284 283 282 282 281 281 282 280 277 276 277 277 276 275 276 276 276 276 277
246 247 249 252 257 262 265 268 270 272 274 275 277 278 278 279 280 282 281 282 283 283 284 283 284 284 282 283 284 282 282 282 281 279 279 279 278 277 278 277 277 277 277
244 247 250 254 259 263 266 271 274 276 279 279 282 285 282 281 283 285 285 285 284 284 285 283 284 285 285 284 284 284 284 282 282 280 280 280 279 279 278 277 277 277 277
Height
5906 5906 5906 5906 5906 5906 5907 5908 5908 5909 5909 5909 5909 5909 5909 5910 5910 5910 5910 5910 5911 5911 5911 5911 5911 5911 5910 5910 5910 5910 5910 5910 5909 5909 5909 5908 5908 5908 5907 5907 5907 5906 5906
5904 5904 5904 5905 5905 5905 5905 5906 5907 5907 5907 5907 5908 5908 5908 5908 5908 5908 5909 5909 5909 5909 5909 5909 5909 5909 5909 5909 5909 5908 5908 5908 5908 5908 5907 5907 5906 5906 5906 5905 5905 5905 5904
5902 5902 5902 5903 5903 5903 5904 5905 5905 5905 5906 5906 5906 5906 5906 5907 5907 5907 5907 5908 5908 5908 5908 5908 5908 5908 5907 5907 5907 5907 5907 5906 5906 5906 5905 5905 5905 5904 5904 5904 5903 5903 5903
5900 5900 5900 5901 5901 5902 5902 5903 5903 5904 5904 5904 5905 5905 5905 5905 5906 5906 5906 5907 5907 5907 5907 5907 5906 5906 5906 5906 5906 5905 5905 5904 5904 5904 5904 5903 5903 5902 5902 5902 5901 5901 5901
5898 5898 5898 5899 5899 5900 5901 5901 5902 5902 5903 5903 5903 5904 5904 5904 5905 5905 5905 5905 5905 5906 5906 5905 5905 5905 5905 5904 5904 5903 5903 5903 5902 5902 5902 5901 5901 5901 5900 5900 5900 5899 5899
5896 5896 5896 5896 5897 5898 5899 5900 5901 5901 5901 5902 5902 5902 5903 5903 5903 5904 5904 5904 5904 5905 5905 5904 5904 5904 5903 5903 5902 5902 5901 5901 5901 5900 5900 5899 5899 5899 5898 5898 5898 5897 5897
5895 5894 5894 5895 5896 5896 5897 5898 5899 5900 5900 5901 5901 5901 5901 5902 5902 5903 5903 5904 5904 5904 5904 5904 5903 5902 5902 5901 5901 5900 5900 5899 5899 5898 5898 5897 5897 5897 5896 5896 5896 5895 5895
5893 5893 5893 5893 5894 5895 5896 5897 5898 5898 5899 5899 5900 5900 5901 5901 5901 5902 5902 5902 5903 5903 5903 5903 5902 5901 5901 5900 5900 5899 5898 5898 5897 5896 5896 5896 5895 5894 5894 5894 5894 5893 5893
5892 5892 5892 5892 5893 5893 5894 5895 5896 5897 5898 5898 5899 5899 5900 5900 5900 5901 5901 5901 5902 5902 5902 5902 5901 5900 5899 5899 5898 5897 5897 5896 5895 5894 5894 5893 5893 5892 5892 5892 5891 5891 5890
5891 5891 5891 5891 5892 5892 5893 5894 5895 5895 5896 5897 5897 5898 5898 5899 5899 5900 5900 5900 5900 5901 5901 5900 5899 5899 5898 5897 5897 5896 5895 5894 5893 5892 5891 5891 5890 5890 5889 5889 5889 5888 5888
5890 5890 5890 5890 5890 5891 5892 5892 5893 5894 5894 5895 5896 5896 5897 5897 5898 5898 5899 5899 5899 5899 5899 5898 5898 5897 5896 5895 5894 5893 5892 5891 5890 5889 5889 5888 5888 5887 5886 5886 5885 5885 5884
5889 5889 5889 5889 5889 5890 5891 5891 5892 5892 5893 5894 5894 5895 5895 5896 5896 5897 5897 5897 5897 5897 5897 5896 5896 5895 5894 5893 5891 5890 5889 5888 5887 5886 5885 5885 5884 5884 5883 5882 5882 5881 5881
5887 5887 5887 5888 5888 5889 5889 5890 5890 5891 5891 5892 5893 5893 5894 5894 5894 5895 5895 5895 5895 5895 5894 5894 5893 5892 5891 5890 5889 5888 5887 5885 5884 5883 5882 5881 5881 5880 5879 5879 5878 5877 5877
5885 5886 5886 5886 5887 5887 5888 5888 5889 5889 5890 5890 5891 5891 5892 5892 5892 5893 5893 5893 5892 5892 5892 5891 5890 5890 5889 5888 5886 5885 5884 5883 5881 5880 5879 5878 5877 5876 5875 5875 5874 5873 5873
5884 5884 5884 5884 5885 5885 5886 5886 5887 5888 5888 5888 5889 5889 5890 5890 5890 5890 5890 5890 5890 5889 5888 5888 5887 5886 5885 5884 5883 5882 5881 5879 5878 5876 5875 5874 5873 5872 5871 5870 5870 5869 5868
5881 5882 5882 5882 5883 5883 5884 5884 5885 5885 5886 5886 5887 5887 5887 5887 5887 5887 5887 5887 5886 5886 5885 5884 5883 5883 5882 5881 5880 5878 5877 5876 5874 5872 5871 5870 5869 5868 5867 5866 5865 5864 5863
5878 5879 5879 5880 5880 5881 5881 5882 5882 5883 5883 5884 5884 5884 5884 5884 5884 5884 5884 5883 5883 5882 5881 5880 5879 5878 5877 5876 5875 5874 5872 5871 5870 5868 5867 5865 5864 5863 5862 5860 5859 5858 5857
5875 5875 5876 5877 5877 5878 5878 5879 5879 5880 5880 5881 5881 5880 5880 5880 5879 5879 5879 5878 5878 5877 5876 5876 5874 5874 5872 5871 5870 5868 5867 5865 5864 5863 5861 5860 5859 5857 5856 5855 5854 5852 5851
5871 5872 5873 5874 5874 5874 5875 5876 5876 5876 5877 5876 5876 5876 5876 5875 5875 5874 5873 5873 5872 5871 5871 5870 5869 5868 5867 5865 5863 5862 5861 5860 5858 5857 5856 5854 5853 5851 5850 5849 5847 5846 5845
5867 5868 5869 5870 5871 5871 5872 5872 5872 5872 5872 5872 5872 5871 5871 5870 5869 5868 5867 5866 5865 5864 5864 5863 5862 5861 5860 5858 5857 5856 5854 5853 5852 5851 5849 5847 5846 5844 5843 5842 5840 5838 5837
5863 5864 5866 5866 5867 5867 5867 5868 5868 5867 5867 5866 5866 5865 5865 5864 5863 5861 5860 5859 5858 5857 5856 5855 5854 5853 5851 5850 5849 5848 5847 5845 5844 5843 5841 5840 5838 5837 5835 5834 5832 5830 5828
5858 5859 5861 5861 5862 5862 5862 5862 5862 5862 5861 5861 5860 5859 5858 5857 5856 5855 5853 5852 5850 5849 5848 5847 5846 5845 5844 5843 5841 5839 5838 5837 5836 5834 5833 5831 5830 5828 5826 5825 5823 5821 5818
5853 5854 5855 5856 5856 5856 5857 5857 5857 5857 5855 5854 5853 5851 5851 5849 5849 5847 5845 5844 5843 5842 5841 5839 5838 5837 5836 5834 5832 5831 5829 5828 5826 5825 5823 5822 5820 5819 5817 5815 5813 5810 5807
5847 5849 5850 5850 5851 5851 5851 5851 5851 5850 5848 5847 5845 5844 5843 5842 5841 5839 5837 5836 5835 5834 5832 5832 5831 5829 5827 5826 5824 5822 5820 5818 5817 5815 5814 5812 5810 5808 5806 5803 5801 5798 5795
5841 5843 5844 5845 5845 5845 5845 5845 5844 5842 5841 5839 5838 5837 5836 5834 5833 5831 5830 5828 5827 5826 5825 5825 5823 5821 5819 5817 5815 5813 5811 5809 5807 5805 5803 5801 5799 5797 5794 5791 5787 5784 5781
5835 5837 5838 5839 5839 5839 5839 5838 5837 5835 5833 5832 5831 5829 5828 5826 5825 5823 5822 5820 5820 5819 5817 5815 5813 5812 5810 5808 5806 5804 5802 5800 5797 5794 5792 5789 5786 5783 5780 5777 5773 5770 5766